DW9924 Weather Reports


Display with metric or nautical units.
time (UTC)temp
F
wind
direction
speed
MPH
gust
MPH
rain 1hr
in
rain 24hr
in
rain mn
in
humidity
%
barometer
mb
20260504110406 66 153 3.0 8.0 0.00 0.00 0.00 66 1019.5
20260504081907 65 142 2.0 3.0 0.00 0.00 0.00 63 1019.6
20260504081408 65 189 1.0 3.0 0.00 0.00 0.00 61 1019.5
20260504080908 65 159 2.0 6.0 0.00 0.00 0.00 60 1019.4
20260504070407 63 81 0.0 3.0 0.00 0.00 0.00 58 1018.8
20260504050407 61 32 1.0 3.0 0.00 0.00 0.00 57 1018.5
20260504044407 61 47 1.0 2.0 0.00 0.00 0.00 55 1018.5
20260504043906 61 42 2.0 3.0 0.00 0.00 0.00 54 1018.5
20260504043407 60 40 2.0 3.0 0.00 0.00 0.00 54 1018.4
20260504041907 60 46 1.0 3.0 0.00 0.00 0.00 54 1018.3
20260504041407 60 62 1.0 3.0 0.00 0.00 0.00 56 1018.3
20260504040907 60 46 2.0 3.0 0.00 0.00 0.00 56 1018.3
20260504040410 60 41 2.0 3.0 0.00 0.00 0.00 57 1018.3
20260504034907 60 42 2.0 3.0 0.00 0.00 0.00 52 1018.3
20260504034407 60 46 2.0 2.0 0.00 0.00 0.00 52 1018.3
20260504033908 60 44 2.0 2.0 0.00 0.00 0.00 53 1018.3
20260504033406 60 42 2.0 3.0 0.00 0.00 0.00 53 1018.2
20260504031914 60 37 2.0 3.0 0.00 0.00 0.00 53 1018.3
20260504030907 59 42 2.0 3.0 0.00 0.00 0.00 52 1018.3
20260504030406 59 48 2.0 3.0 0.00 0.00 0.00 53 1018.3
20260504024407 60 37 1.0 2.0 0.00 0.00 0.00 54 1018.6
20260504023907 60 37 1.0 2.0 0.00 0.00 0.00 53 1018.5
20260504023406 60 42 1.0 3.0 0.00 0.00 0.00 54 1018.5
20260504021909 61 65 1.0 2.0 0.00 0.00 0.00 43 1018.4
20260504020907 61 40 1.0 3.0 0.00 0.00 0.00 42 1018.4
20260504014907 60 35 1.0 2.0 0.00 0.00 0.00 47 1018.2
20260504013906 60 37 1.0 3.0 0.00 0.00 0.00 47 1018.3
20260504013407 60 34 2.0 3.0 0.00 0.00 0.00 51 1018.3
20260504011907 60 14 2.0 3.0 0.00 0.00 0.00 54 1018.5
20260504011406 59 30 2.0 3.0 0.00 0.00 0.00 54 1018.5
20260504010907 59 11 1.0 2.0 0.00 0.00 0.00 55 1018.5
20260504004906 60 28 2.0 3.0 0.00 0.00 0.00 54 1018.7
20260504004407 60 19 2.0 3.0 0.00 0.00 0.00 55 1018.7
20260504003906 60 25 2.0 2.0 0.00 0.00 0.00 55 1018.7
20260504003411 60 27 2.0 3.0 0.00 0.00 0.00 54 1018.7
20260504001906 61 4 1.0 2.0 0.00 0.00 0.00 52 1018.7
20260504000408 61 43 2.0 3.0 0.00 0.00 0.00 51 1018.7
20260503234908 62 32 2.0 3.0 0.00 0.00 0.00 47 1018.7
20260503234406 62 26 1.0 3.0 0.00 0.00 0.00 47 1018.7
20260503233906 62 58 2.0 3.0 0.00 0.00 0.00 46 1018.7
20260503231906 61 70 2.0 3.0 0.00 0.00 0.00 46 1018.9
20260503231406 61 28 2.0 3.0 0.00 0.00 0.00 48 1018.9
20260503230907 61 33 1.0 3.0 0.00 0.00 0.00 48 1019.1
20260503230409 60 78 1.0 3.0 0.00 0.00 0.00 50 1019.1
20260503223907 61 8 1.0 2.0 0.00 0.00 0.00 53 1019.3
20260503223406 61 20 1.0 5.0 0.00 0.00 0.00 54 1019.5
20260503221407 60 29 2.0 5.0 0.00 0.00 0.00 56 1019.4
20260503220910 60 21 2.0 3.0 0.00 0.00 0.00 56 1019.4
20260503220406 60 21 2.0 3.0 0.00 0.00 0.00 55 1019.5
20260503214406 60 30 1.0 3.0 0.00 0.00 0.00 56 1019.4
20260503213906 59 39 2.0 3.0 0.00 0.00 0.00 57 1019.4
20260503213406 59 31 2.0 3.0 0.00 0.00 0.00 61 1019.4
20260503211906 59 34 2.0 3.0 0.00 0.00 0.00 65 1019.4
20260503211406 59 33 1.0 3.0 0.00 0.00 0.00 66 1019.4
20260503210406 60 45 2.0 3.0 0.00 0.00 0.00 67 1019.5
20260503204906 59 26 1.0 2.0 0.00 0.00 0.00 67 1019.4
20260503204406 59 11 2.0 3.0 0.00 0.00 0.00 67 1019.4
20260503203906 60 93 1.0 3.0 0.00 0.00 0.00 67 1019.4
20260503201911 60 38 2.0 3.0 0.00 0.00 0.00 65 1019.4
20260503201408 60 42 2.0 3.0 0.00 0.00 0.00 65 1019.3
20260503200906 60 36 2.0 3.0 0.00 0.00 0.00 66 1019.2
20260503200408 60 36 2.0 3.0 0.00 0.00 0.00 66 1019.3
20260503194906 59 30 1.0 3.0 0.00 0.00 0.00 68 1019.2
20260503194409 59 26 2.0 3.0 0.00 0.00 0.00 68 1019.3
20260503193407 60 32 2.0 3.0 0.00 0.00 0.00 67 1019.2
20260503191921 60 35 2.0 3.0 0.00 0.00 0.00 67 1019.0
20260503190907 60 33 2.0 2.0 0.00 0.00 0.00 67 1018.9
20260503190405 60 33 1.0 3.0 0.00 0.00 0.00 67 1018.8
20260503183911 61 39 2.0 3.0 0.00 0.00 0.00 66 1018.8
20260503183406 62 31 1.0 3.0 0.00 0.00 0.00 66 1018.8
20260503181406 63 40 1.0 2.0 0.00 0.00 0.00 64 1018.7
20260503180406 64 355 1.0 2.0 0.00 0.00 0.00 62 1018.7
20260503174406 64 214 0.0 0.0 0.00 0.00 0.00 60 1018.7
20260503173906 64 214 0.0 0.0 0.00 0.00 0.00 59 1018.7
20260503173405 64 214 0.0 2.0 0.00 0.00 0.00 59 1018.6
20260503171905 65 214 0.0 1.0 0.00 0.00 0.00 61 1018.9
20260503171406 65 214 1.0 1.0 0.00 0.00 0.00 60 1018.9
20260503170905 65 214 0.0 0.0 0.00 0.00 0.00 59 1019.0
20260503170407 65 214 0.0 3.0 0.00 0.00 0.00 60 1019.0
20260503150405 69 227 0.0 3.0 0.00 0.00 0.00 64 1019.1